Regional Weather Roundup
Issued by NWS

Home | Current Version | Previous Version | Text Only | Print | Product List | Glossary Off
Versions: 1 2 3 4 5 6 7 8 9 10 11 12 13 14 15 16 17 18 19 20 21 22 23 24 25 26 27 28 29 30 31 32 33 34 35 36 37 38 39 40 41 42 43 44 45 46 47 48 49 50

000
ASUS43 KBIS 240510
RWRND

NORTH DAKOTA REGIONAL WEATHER ROUNDUP
NATIONAL WEATHER SERVICE BISMARCK ND
1200 AM CDT SUN JUL 24 2016

NOTE: "FAIR" INDICATES FEW OR NO CLOUDS BELOW 12,000 FEET WITH NO
SIGNIFICANT WEATHER AND/OR OBSTRUCTIONS TO VISIBILITY.


NDZ001>003-009>011-017-240600-
NORTHWEST NORTH DAKOTA

CITY           SKY/WX    TMP DP  RH WIND       PRES   REMARKS
WILLISTON      CLEAR     63  54  72 W8        29.97R
MINOT          CLEAR     69  59  70 W14       29.86R
MINOT AFB      CLEAR     63  59  88 W9        29.85R
$$

NDZ018>021-031>035-040>046-240600-
SOUTHWEST NORTH DAKOTA

CITY           SKY/WX    TMP DP  RH WIND       PRES   REMARKS
BISMARCK       CLEAR     71  57  61 NW8       29.91R
DICKINSON      CLEAR     59  52  77 NW7       29.99R
GARRISON         N/A     63  58  83 NW14      29.91R
HETTINGER ARPT CLEAR     60  47  61 W5        30.02R
$$

NDZ004>008-012>016-024-026-027-054-240600-
NORTHEAST NORTH DAKOTA

CITY           SKY/WX    TMP DP  RH WIND       PRES   REMARKS
GRAND FORKS    CLEAR     65  63  93 SW6       29.73R
GRND FRKS AFB  CLEAR     68  67  96 W9        29.75R
DEVILS LAKE    CLEAR     68  60  75 W14       29.79S
$$

NDZ022-023-025-028>030-036>039-047>053-240600-
SOUTHEAST NORTH DAKOTA

CITY           SKY/WX    TMP DP  RH WIND       PRES   REMARKS
FARGO          MOCLDY    73  70  90 SW3       29.78R
JAMESTOWN      CLEAR     66  60  81 W9        29.83R
$$





USA.gov is the U.S. government's official web portal to all federal, state and local government web resources and services.